Location: Hastringsfeld
(50.9620°N, 10.4787°E)
Time: 04:36:47
(UTC+00:00)

Sich 1 - Pass Details

Date: 26 September 2023
Orbit: 587 x 615 km, 82.5° (Epoch: 29 November)

Event Time Altitude Azimuth Distance (km) Brightness Sun altitude
Rises 03:30:02 0° 353° (N) 2,851 6.6 -16.3°
Reaches altitude 10° 03:32:18 10° 360° (N) 1,949 5.8 -15.9°
Maximum altitude 03:36:29 48° 75° (ENE) 797 4.1 -15.3°
Drops below altitude 10° 03:40:40 10° 150° (SSE) 1,952 5.8 -14.7°
Sets 03:42:56 0° 156° (SSE) 2,856 6.6 -14.3°
